Location: Baix
(44.7118°N, 4.7648°E)
Time: 00:30:13
(UTC+00:00)

Vanguard 3 - Pass Details

Date: 01 December 2020
Orbit: 508 x 3262 km, 33.3° (Epoch: 19 January)

Event Time Altitude Azimuth Distance (km) Brightness Sun altitude
Rises 22:55:02 0° 249° (WSW) 2,672 - -66.1°
Reaches altitude 10° 22:57:41 10° 226° (SW) 1,923 - -66.3°
Maximum altitude 23:00:25 17° 186° (S) 1,738 - -66.5°
Drops below altitude 10° 23:03:49 10° 148° (SSE) 2,468 - -66.6°
Sets 23:07:56 0° 129° (SE) 3,884 - -66.8°
